Lid_Strength_Index
3 2 2 3 3 3 3 3 4 4 2 2 2 1 0 0 1 3 5 3 2 -1 -2 3 4 5 10 11 11 10 14 15 14 13 12 10 10 8 7 7 6 6 6 5 7
3 3 3 3 3 3 2 3 4 3 1 1 1 1 0 0 3 5 2 -1 -2 -3 3 5 7 7 13 12 12 13 14 12 10 10 12 10 10 10 9 9 7 7 5 6 5
3 3 3 3 3 3 3 3 4 3 1 1 1 1 1 1 6 8 1 -1 -2 -2 1 4 6 8 13 12 13 14 15 11 11 9 9 9 10 10 9 11 9 9 7 7 7
3 3 3 4 3 3 3 3 4 3 1 1 1 1 1 3 11 3 -2 -2 -2 -0 3 6 8 10 14 15 14 15 12 11 11 10 10 10 8 10 9 9 8 8 8 8 8
3 3 3 3 3 3 3 3 4 3 1 1 1 1 3 6 7 3 -2 -1 -0 2 6 8 10 10 12 12 12 14 12 10 10 10 10 10 11 10 10 8 7 8 8 9 9
2 2 2 2 2 3 3 3 4 4 2 2 2 2 5 9 3 -0 0 1 1 5 7 9 9 8 9 10 11 10 9 9 8 9 10 11 11 11 9 8 8 8 9 9 9
2 2 2 2 2 2 3 4 4 5 2 2 1 2 5 7 2 1 2 5 5 6 7 7 7 7 8 10 9 9 11 10 9 9 10 9 12 11 8 7 7 8 8 8 7
2 2 2 2 2 2 2 4 4 4 3 2 2 4 8 2 3 4 4 5 5 5 6 4 5 7 9 9 9 11 12 14 10 9 8 9 12 8 6 7 7 7 7 7 6
2 2 2 2 2 2 2 4 4 3 4 2 4 6 7 1 3 3 3 5 5 5 5 3 5 8 8 11 14 13 15 13 11 8 8 9 11 8 6 7 8 8 8 7 7
1 2 2 3 3 3 3 4 4 4 4 5 4 7 4 5 4 5 5 3 5 6 6 6 8 10 11 13 16 14 14 12 12 10 9 10 11 8 7 8 8 8 8 7 7
1 2 2 3 3 3 4 8 6 7 6 8 7 6 4 2 4 6 5 3 5 7 10 8 11 13 11 10 10 10 11 12 10 9 10 10 10 9 8 8 8 8 8 7 7
2 2 3 3 3 3 5 9 6 7 10 6 6 6 3 2 5 7 5 6 8 11 9 11 12 9 8 8 9 10 11 12 10 9 10 11 11 10 10 9 9 8 8 7 7
3 3 3 3 3 5 8 7 5 5 10 7 5 5 5 5 5 7 5 6 9 11 11 12 10 7 8 9 10 10 11 12 11 9 10 11 13 11 9 9 8 8 7 7 7
3 2 3 3 5 6 7 4 4 5 12 9 7 6 5 6 8 3 4 5 8 10 10 11 8 9 9 9 9 13 9 9 10 12 15 11 17 13 11 9 9 8 8 8 7
2 2 3 3 7 8 4 4 5 6 20 8 7 4 6 8 8 7 4 6 8 8 9 10 10 10 10 10 9 11 9 10 10 12 14 13 16 14 11 11 9 8 8 8 8
3 2 3 5 6 6 4 4 6 13 19 10 7 8 8 8 8 8 7 6 6 8 8 9 7 9 9 8 9 8 10 12 13 14 17 14 14 15 12 11 10 8 8 8 8
2 2 3 4 7 4 5 6 13 17 9 11 10 8 9 9 8 8 9 10 11 13 13 10 10 8 7 10 10 10 14 18 18 18 18 12 14 14 10 9 8 9 9 9 8
3 3 5 4 5 5 6 9 17 12 11 7 8 8 10 9 9 9 9 11 10 12 14 15 14 9 7 9 11 12 13 17 20 19 17 12 16 13 8 7 8 8 8 8 9
3 6 6 4 3 4 7 15 14 11 8 9 8 10 11 9 9 9 10 10 9 10 14 15 14 8 7 7 9 11 13 12 15 16 18 15 13 10 8 8 8 8 9 9 9
6 7 6 2 3 5 10 13 11 7 7 8 12 10 13 12 11 11 10 8 8 8 9 11 15 9 8 7 7 10 8 15 15 21 22 17 16 14 11 10 9 9 9 9 10
8 6 4 2 3 7 13 12 8 6 6 8 10 11 11 12 11 12 11 9 7 8 9 11 12 13 10 12 12 11 13 13 13 16 20 21 17 10 10 9 9 9 8 8 9
7 10 3 4 10 10 11 8 8 7 6 7 8 9 11 10 11 11 12 10 7 7 11 10 12 16 13 9 8 11 13 13 18 19 17 18 17 8 8 9 9 8 8 8 9
8 7 4 4 12 11 9 8 8 8 8 8 9 8 8 11 13 11 10 7 7 8 10 10 14 17 15 12 10 13 11 11 12 14 17 19 17 9 8 9 9 10 9 9 9
8 10 7 6 6 9 10 10 10 7 7 7 8 8 10 11 10 12 10 8 7 7 6 8 12 15 17 15 13 14 11 11 13 17 17 16 15 11 10 10 10 10 9 10 9
7 9 8 11 9 9 9 9 10 10 7 7 9 9 11 13 12 12 10 10 8 7 9 10 14 13 12 11 11 12 12 11 13 13 17 14 13 11 11 11 11 10 9 9 9
7 8 7 8 8 8 9 10 10 9 9 10 10 9 9 12 11 13 11 11 12 9 11 10 15 13 14 12 11 13 11 11 11 11 11 12 12 9 8 10 10 10 9 9 9
4 4 6 8 8 10 10 9 9 8 7 7 9 10 11 10 9 10 10 9 10 12 12 12 13 14 17 13 13 15 12 11 11 10 11 14 11 10 10 10 10 10 10 9 9